TimeCDT,TemperatureF,Dew PointF,Humidity,Sea Level PressureIn,VisibilityMPH,Wind Direction,Wind SpeedMPH,Gust SpeedMPH,PrecipitationIn,Events,Conditions,WindDirDegrees,DateUTC
12:58 AM,53.8,53.6,99,29.96,10.0,NW,4.6,-,N/A,,Clear,310,2013-09-21 05:58:00
1:58 AM,53.1,52.7,99,29.96,10.0,NW,4.6,-,N/A,,Clear,310,2013-09-21 06:58:00
2:58 AM,52.7,52.7,100,29.96,10.0,WNW,3.5,-,N/A,,Clear,300,2013-09-21 07:58:00
3:58 AM,52.0,52.0,100,29.95,10.0,WNW,3.5,-,N/A,,Clear,300,2013-09-21 08:58:00
4:58 AM,51.3,51.3,100,29.96,10.0,WNW,3.5,-,N/A,,Clear,300,2013-09-21 09:58:00
5:58 AM,50.5,50.5,100,29.97,10.0,WNW,5.8,-,N/A,,Clear,300,2013-09-21 10:58:00
6:58 AM,50.5,50.5,100,29.97,10.0,WNW,4.6,-,N/A,,Clear,300,2013-09-21 11:58:00
7:58 AM,52.5,52.5,100,29.99,10.0,NW,4.6,-,N/A,,Clear,320,2013-09-21 12:58:00
8:58 AM,55.6,53.2,92,30.01,10.0,NNW,5.8,-,N/A,,Clear,340,2013-09-21 13:58:00
9:58 AM,59.2,54.1,83,30.02,10.0,NNW,8.1,-,N/A,,Clear,330,2013-09-21 14:58:00
10:58 AM,63.0,53.4,71,30.03,10.0,NNW,11.5,-,N/A,,Scattered Clouds,330,2013-09-21 15:58:00
11:58 AM,66.2,47.5,51,30.02,10.0,NNW,10.4,-,N/A,,Clear,330,2013-09-21 16:58:00
12:58 PM,68.0,45.7,45,30.00,10.0,North,8.1,-,N/A,,Clear,360,2013-09-21 17:58:00
1:58 PM,69.3,48.7,48,29.98,9.0,North,9.2,18.4,N/A,,Clear,350,2013-09-21 18:58:00
2:58 PM,70.0,45.5,41,29.97,10.0,North,8.1,-,N/A,,Clear,350,2013-09-21 19:58:00
3:38 PM,69.8,46.4,43,29.95,2.0,North,5.8,-,N/A,,Haze,350,2013-09-21 20:38:00
3:43 PM,69.8,48.2,46,29.95,1.8,NNW,6.9,-,N/A,,Haze,330,2013-09-21 20:43:00
3:48 PM,69.8,46.4,43,29.95,4.0,NW,6.9,-,N/A,,Haze,320,2013-09-21 20:48:00
3:58 PM,70.9,48.0,44,29.95,6.0,NNW,8.1,-,N/A,,Haze,330,2013-09-21 20:58:00
4:58 PM,69.8,48.2,46,29.95,3.0,NNW,6.9,-,N/A,,Haze,340,2013-09-21 21:58:00
5:48 PM,69.8,50.0,49,29.95,3.0,NW,5.8,-,N/A,,Haze,320,2013-09-21 22:48:00
5:58 PM,69.3,50.0,50,29.95,4.0,NW,4.6,-,N/A,,Haze,320,2013-09-21 22:58:00
6:58 PM,63.5,54.0,71,29.94,3.0,NNW,3.5,-,N/A,,Haze,330,2013-09-21 23:58:00
7:58 PM,55.2,53.4,94,29.96,7.0,NNW,3.5,-,N/A,,Clear,340,2013-09-22 00:58:00
8:58 PM,53.1,52.3,97,29.97,4.0,NNW,1.2,-,N/A,,Clear,340,2013-09-22 01:58:00
9:58 PM,51.6,51.4,99,29.97,6.0,North,2.3,-,N/A,,Clear,350,2013-09-22 02:58:00
10:58 PM,50.4,50.4,100,29.96,10.0,Calm,Calm,-,N/A,,Clear,0,2013-09-22 03:58:00
11:58 PM,49.6,49.6,100,29.96,10.0,WSW,2.3,-,N/A,,Clear,240,2013-09-22 04:58:00